TimeMDT,TemperatureF,Dew PointF,Humidity,Sea Level PressureIn,VisibilityMPH,Wind Direction,Wind SpeedMPH,Gust SpeedMPH,PrecipitationIn,Events,Conditions,WindDirDegrees,DateUTC
12:56 AM,59.0,48.9,69,29.98,-9999.0,NNW,8.1,-,N/A,,Unknown,340,2013-06-15 06:56:00
1:56 AM,59.0,52.0,78,30.00,-9999.0,Calm,Calm,-,N/A,,Unknown,0,2013-06-15 07:56:00
2:56 AM,57.0,51.1,81,29.99,-9999.0,NNW,10.4,-,0.03,,Unknown,330,2013-06-15 08:56:00
3:56 AM,57.0,52.0,83,29.99,-9999.0,Calm,Calm,-,0.01,,Unknown,0,2013-06-15 09:56:00
4:56 AM,57.9,52.0,81,29.99,-9999.0,NW,4.6,-,N/A,,Unknown,310,2013-06-15 10:56:00
5:56 AM,57.0,51.1,81,29.99,-9999.0,Calm,Calm,-,N/A,,Unknown,0,2013-06-15 11:56:00
6:56 AM,63.0,50.0,63,29.99,-9999.0,WNW,4.6,-,N/A,,Unknown,290,2013-06-15 12:56:00
7:56 AM,63.0,53.1,70,30.01,-9999.0,WSW,5.8,-,N/A,,Unknown,240,2013-06-15 13:56:00
8:56 AM,66.9,48.9,52,30.01,-9999.0,West,8.1,-,N/A,,Unknown,270,2013-06-15 14:56:00
9:56 AM,70.0,46.9,44,30.01,-9999.0,WNW,5.8,-,N/A,,Unknown,290,2013-06-15 15:56:00
10:56 AM,70.0,44.1,39,30.01,-9999.0,WNW,6.9,16.1,N/A,,Unknown,300,2013-06-15 16:56:00
11:56 AM,72.0,43.0,35,30.01,-9999.0,WNW,12.7,-,N/A,,Unknown,290,2013-06-15 17:56:00
12:56 PM,73.9,44.1,34,30.00,-9999.0,West,12.7,19.6,N/A,,Unknown,270,2013-06-15 18:56:00
1:56 PM,75.0,44.1,33,29.99,-9999.0,NW,10.4,-,N/A,,Unknown,310,2013-06-15 19:56:00
2:56 PM,75.9,41.0,29,29.97,-9999.0,West,9.2,16.1,N/A,,Unknown,280,2013-06-15 20:56:00
3:56 PM,75.9,42.1,30,29.96,-9999.0,West,13.8,18.4,N/A,,Unknown,280,2013-06-15 21:56:00
4:56 PM,75.9,42.1,30,29.95,-9999.0,NW,9.2,-,N/A,,Unknown,310,2013-06-15 22:56:00
5:56 PM,75.9,44.1,32,29.94,-9999.0,West,4.6,-,N/A,,Unknown,260,2013-06-15 23:56:00
6:56 PM,73.9,48.9,41,29.94,-9999.0,West,4.6,-,N/A,,Unknown,260,2013-06-16 00:56:00
7:56 PM,73.0,48.9,42,29.94,-9999.0,Calm,Calm,-,N/A,,Unknown,0,2013-06-16 01:56:00
8:56 PM,69.1,48.0,47,29.95,-9999.0,Calm,Calm,-,N/A,,Unknown,0,2013-06-16 02:56:00
9:56 PM,68.0,43.0,40,29.95,-9999.0,Calm,Calm,-,N/A,,Unknown,0,2013-06-16 03:56:00
10:56 PM,59.0,48.0,67,29.97,-9999.0,South,4.6,-,N/A,,Unknown,190,2013-06-16 04:56:00
11:56 PM,57.9,46.9,67,29.97,-9999.0,SSW,5.8,-,N/A,,Unknown,200,2013-06-16 05:56:00